Location: Les Jeannots
(43.2262°N, 5.5774°E)
Time: 02:23:14
(UTC+00:00)

IRIDIUM 104 - Pass Details

Date: 05 July 2020
Orbit: 776 x 779 km, 86.4° (Epoch: 04 August)

Event Time Altitude Azimuth Distance (km) Brightness Sun altitude
Exits shadow 23:23:20 63° 203° (SSW) 871 4.2 -24.0°
Maximum altitude 23:24:10 80° 272° (W) 797 4.3 -24.0°
Drops below altitude 10° 23:29:26 10° 1° (N) 2,341 7.9 -24.0°
Sets 23:31:48 0° 2° (N) 3,273 9.0 -24.1°
